STARLINK-4037 (52663 NORAD) Tracking and Keplerian Element Data

This shows tracking and keplerian element data for the satellite.

Feedback or suggestion? Click here.




ElementValue
Catalog52663
NameSTARLINK-4037
Epoch Orbit130
Epoch Day192.91667824
Epoch Year2022
RAAN35.3836
Inclination53.2186
Eccentricity0.0001942
Argument of Perigee56.1773
Mean Anonmoly7.1543
Mean Motion15.21578664
Decay Rate0.00012047
L11 52663U 22053H 22192.91667824 .00012047 00000+0 54098-3 0 9995
L22 52663 53.2186 35.3836 0001942 56.1773 7.1543 15.21578664 1301

Live tracking and technical data element details for STARLINK-4037 (NORAD 52663). STARLINK-4037 can be tracked NOW for your location showing map with azimuth and elevation plus other details from your city location.

Track the satellite on the map from your city or location and see movement details for azimuth, elevation, latitude, longitude, range, height, and movement on the map or in text.







IsCatalogInMostPopularTable: catalog: 52663, numindb: 5
Update: records affected: 1



GetName: 52663 STARLINK-4037

Hit Count: updated at: Sun, 14 Aug 2022 01:30:59 GMT